[[{"header":{"parameterUnit":"m.s-1","parameterCategory":1,"la1":30.2991,"la2":30.254,"lo1":-89.0895,"lo2":-89.0444,"dy":0.0017,"dx":0.0017,"nx":28,"ny":28,"refTime":"2025-04-17T03:00:00:Z","depth":0,"parameterNumber":2,"parameterNumberName":"U-component_of_WINDS"},"data":[0,0,0,0,0,0,0,0,0,0,0,0,0,0,0,0,0,0,0,0,0,0,0,0,0,0,0,0,0,0,0,0,0,0,0,0,0,0,0,0,0,0,0,0,0,0,0,0,0,0,0,0,0,0,0,0,0,0,-0.8476,-0.8477,0,-0.8519,-0.852,-0.852,-0.8533,-0.8533,-0.8532,-0.8532,-0.8579,-0.858,-0.8582,0,0,0,0,0,0,0,0,0,0,0,0,0,-0.8407,-0.8408,-0.8476,-0.8477,-0.8477,-0.8519,-0.852,-0.8521,-0.8533,-0.8533,-0.8532,-0.8532,-0.8578,-0.858,-0.8582,0,0,0,0,0,0,0,0,0,0,0,0,0,-0.8442,-0.8408,-0.8476,-0.8488,-0.849,-0.8519,-0.852,-0.8521,-0.8533,-0.8533,-0.8532,-0.8532,-0.8578,-0.858,-0.8582,-0.8603,0,0,-0.8589,-0.859,0,0,0,0,0,0,0,0,-0.844,-0.8445,-0.8486,-0.8487,-0.8489,-0.852,-0.8513,-0.8548,-0.8533,-0.8517,-0.8532,-0.8532,-0.856,-0.8563,-0.8572,-0.8605,-0.8607,-0.8589,-0.859,-0.8591,-0.8592,0,0,0,0,0,0,0,-0.8438,-0.8443,-0.8493,-0.8487,-0.8489,-0.8493,-0.8497,-0.852,-0.854,-0.8518,-0.8519,-0.8524,-0.8561,-0.857,-0.8574,-0.8608,-0.8589,-0.8591,-0.8592,-0.8593,-0.8662,-0.8662,0,0,0,0,0,0,-0.8433,-0.8441,-0.8492,-0.8495,-0.8463,-0.8494,-0.8499,-0.8511,-0.854,-0.8544,-0.8524,-0.8524,-0.8567,-0.8571,-0.8575,-0.8603,-0.8591,-0.8593,-0.8595,-0.8661,-0.8662,-0.8662,0,0,0,0,0,0,-0.8431,-0.8437,-0.849,-0.8468,-0.8475,-0.8496,-0.8508,-0.8512,-0.8521,-0.8544,-0.8548,-0.853,-0.8567,-0.8572,-0.8596,-0.8605,-0.8594,-0.8596,-0.8661,-0.8661,-0.8662,-0.8657,0,0,0,0,0,0,-0.8429,-0.8437,-0.8444,-0.8468,-0.8476,-0.8509,-0.8509,-0.8513,-0.8525,-0.8526,-0.8551,-0.8555,-0.8567,-0.8593,-0.8598,-0.8607,-0.8598,-0.866,-0.8661,-0.8662,-0.8657,-0.8658,-0.8658,0,0,0,0,0,-0.8427,-0.8441,-0.8444,-0.845,-0.8486,-0.851,-0.8515,-0.8527,-0.8525,-0.8534,-0.8549,-0.8554,-0.8603,-0.8595,-0.8602,-0.8611,-0.866,-0.8661,-0.8662,-0.8656,-0.8657,-0.8658,0,0,0,0,0,0,-0.8418,-0.8444,-0.8448,-0.8471,-0.8488,-0.8512,-0.8522,-0.8528,-0.8547,-0.8547,-0.8563,-0.8568,-0.8592,-0.8604,-0.8595,-0.8634,-0.8631,-0.8634,-0.8625,-0.8626,-0.8627,-0.8624,-0.86,0,0,0,0,0,-0.8419,-0.8435,-0.8458,-0.8475,-0.8484,-0.8501,-0.8512,-0.8521,-0.854,-0.8547,-0.8564,-0.8583,-0.8602,-0.8615,-0.8634,-0.8658,-0.8665,-0.8668,-0.8669,-0.867,-0.8672,-0.8687,-0.8689,-0.8666,-0.8666,-0.8666,0,0,-0.842,-0.8437,-0.8446,-0.8474,-0.8488,-0.8506,-0.8508,-0.8526,-0.854,-0.855,-0.8574,-0.8587,-0.8609,-0.8634,-0.8645,-0.8645,-0.868,-0.8671,-0.8672,-0.8674,-0.8688,-0.8691,-0.8693,-0.8667,-0.8667,-0.8667,0,0,-0.8432,-0.8446,-0.8462,-0.8477,-0.8498,-0.851,-0.8514,-0.8538,-0.8546,-0.857,-0.8579,-0.8596,-0.8629,-0.8645,-0.8657,-0.8677,-0.8683,-0.8682,-0.8687,-0.8702,-0.8704,-0.8705,-0.8713,-0.8716,-0.8684,-0.8684,-0.8684,0,-0.8432,-0.8458,-0.847,-0.8489,-0.8501,-0.8511,-0.8529,-0.8543,-0.857,-0.8579,-0.8577,-0.862,-0.8635,-0.8664,-0.8669,-0.8678,-0.8685,-0.868,-0.8702,-0.8704,-0.8706,-0.8713,-0.8716,-0.8684,-0.8684,-0.8684,-0.8684,0,-0.8457,-0.8475,-0.8486,-0.8511,-0.8525,-0.8543,-0.8559,-0.8572,-0.858,-0.8592,-0.8617,-0.8636,-0.866,-0.8668,-0.8675,-0.8698,-0.8697,-0.8699,-0.8697,-0.8708,-0.8715,-0.8718,-0.8684,-0.8684,-0.8684,-0.8684,0,0,-0.8464,-0.8497,-0.85,-0.8513,-0.8537,-0.8552,-0.8571,-0.8594,-0.8605,-0.8624,-0.8641,-0.8669,-0.8671,-0.8685,-0.8695,-0.8707,-0.8723,-0.8708,-0.8709,-0.8711,-0.875,-0.8749,-0.8752,-0.8727,-0.8727,-0.8728,-0.8749,0,-0.848,-0.8513,-0.8526,-0.8553,-0.8571,-0.8581,-0.8598,-0.8616,-0.8628,-0.8646,-0.866,-0.868,-0.8681,-0.8689,-0.8702,-0.8718,-0.8731,-0.8717,-0.8744,-0.8745,-0.8739,-0.8756,-0.8755,-0.8774,-0.8752,-0.8752,-0.8753,0,-0.8503,-0.8521,-0.855,-0.8574,-0.8582,-0.8596,-0.8619,-0.8635,-0.8656,-0.8664,-0.868,-0.8689,-0.8711,-0.8707,-0.8738,-0.8728,-0.874,-0.875,-0.8751,-0.8754,-0.875,-0.8761,-0.878,-0.8783,-0.8757,-0.8757,-0.8757,0,-0.8506,-0.8538,-0.856,-0.857,-0.8598,-0.8608,-0.8621,-0.8641,-0.8654,-0.8674,-0.8683,-0.8706,-0.8718,-0.8736,-0.8751,-0.8747,-0.8781,-0.8778,-0.879,-0.8789,-0.8797,-0.8796,-0.8819,-0.8803,-0.8803,-0.8803,-0.8803,0,-0.8523,-0.8541,-0.8562,-0.8576,-0.8597,-0.8611,-0.8632,-0.8645,-0.8663,-0.868,-0.8691,-0.8707,-0.8726,-0.8745,-0.8757,-0.8782,-0.8787,-0.8795,-0.8798,-0.8795,-0.8794,-0.8803,-0.8803,-0.8804,-0.8804,-0.8804,-0.8804,0,-0.8531,-0.8546,-0.857,-0.8595,-0.8601,-0.8616,-0.8637,-0.8651,-0.8664,-0.8686,-0.8692,-0.8713,-0.8736,-0.8753,-0.8783,-0.8791,-0.8818,-0.882,-0.881,-0.8812,-0.8823,-0.8822,-0.8853,-0.8858,-0.8838,-0.8838,-0.8838,0,-0.8541,-0.8554,-0.858,-0.8592,-0.8604,-0.8623,-0.8637,-0.8652,-0.8666,-0.8691,-0.8703,-0.8726,-0.8746,-0.8783,-0.8801,-0.8825,-0.8829,-0.8838,-0.8832,-0.8828,-0.883,-0.8829,-0.8831,-0.8839,-0.8839,-0.8839,-0.8839,0,-0.8557,-0.8564,-0.8582,-0.8604,-0.8619,-0.8637,-0.8655,-0.8665,-0.8684,-0.8699,-0.8723,-0.8738,-0.8768,-0.8792,-0.8818,-0.8832,-0.8839,-0.8841,-0.8845,-0.8841,-0.8835,-0.884,-0.8813,-0.884,-0.884,-0.884,-0.884,-0.884,-0.8567,-0.858,-0.86,-0.8621,-0.8636,-0.8653,-0.8668,-0.8683,-0.8702,-0.8727,-0.8736,-0.876,-0.8782,-0.8817,-0.8831,-0.8851,-0.8851,-0.8857,-0.8858,-0.886,-0.886,-0.8831,-0.8856,-0.8856,-0.8856,-0.8856,-0.8856,0,-0.8584,-0.8598,-0.8617,-0.8642,-0.8658,-0.8663,-0.8684,-0.8698,-0.8719,-0.8738,-0.8757,-0.8785,-0.8808,-0.8828,-0.8853,-0.8865,-0.887,-0.8872,-0.8871,-0.8875,-0.8858,-0.8853,-0.8868,-0.8868,-0.8868,-0.8868,-0.8868,-0.8868,-0.8596,-0.8618,-0.8628,-0.8659,-0.8673,-0.8696,-0.8708,-0.8724,-0.8739,-0.8769,-0.8788,-0.8801,-0.8822,-0.8848,-0.887,-0.8876,-0.8885,-0.8886,-0.8892,-0.8877,-0.8875,-0.8874,-0.8869,-0.8888,-0.8888,-0.8907,-0.8908,-0.8908]},{"header":{"parameterUnit":"m.s-1","parameterCategory":1,"la1":30.2991,"la2":30.254,"lo1":-89.0895,"lo2":-89.0444,"dy":0.0017,"dx":0.0017,"nx":28,"ny":28,"refTime":"2025-04-17T03:00:00:Z","depth":0,"parameterNumber":3,"parameterNumberName":"V-component_of_WINDS"},"data":[0,0,0,0,0,0,0,0,0,0,0,0,0,0,0,0,0,0,0,0,0,0,0,0,0,0,0,0,0,0,0,0,0,0,0,0,0,0,0,0,0,0,0,0,0,0,0,0,0,0,0,0,0,0,0,0,0,0,6.1263,6.1264,0,6.1361,6.1363,6.1364,6.1302,6.1299,6.1296,6.1294,6.1387,6.1392,6.1398,0,0,0,0,0,0,0,0,0,0,0,0,0,6.1014,6.1019,6.1263,6.1264,6.1266,6.1361,6.1363,6.1364,6.1303,6.1299,6.1296,6.1292,6.1386,6.1392,6.1398,0,0,0,0,0,0,0,0,0,0,0,0,0,6.1118,6.102,6.1263,6.1247,6.1246,6.1361,6.1363,6.1364,6.1303,6.1299,6.1295,6.1291,6.1384,6.1391,6.1399,6.1533,0,0,6.1423,6.1426,0,0,0,0,0,0,0,0,6.1112,6.1127,6.1248,6.1248,6.1248,6.1315,6.1309,6.1421,6.1304,6.1281,6.1294,6.1289,6.1366,6.1375,6.1403,6.1537,6.1541,6.1423,6.1428,6.1431,6.1433,0,0,0,0,0,0,0,6.1105,6.1123,6.1302,6.125,6.125,6.1232,6.1242,6.133,6.1347,6.1283,6.1279,6.1292,6.1365,6.1396,6.1405,6.1543,6.1423,6.143,6.1435,6.1438,6.1788,6.1792,0,0,0,0,0,0,6.11,6.1117,6.1299,6.1305,6.1168,6.124,6.1251,6.1298,6.1346,6.1349,6.1295,6.1288,6.1385,6.1396,6.1408,6.1565,6.1431,6.1439,6.1443,6.1783,6.1789,6.1794,0,0,0,0,0,0,6.1095,6.1117,6.1295,6.121,6.1231,6.1249,6.1302,6.1302,6.1332,6.1355,6.1357,6.1324,6.1382,6.1397,6.1502,6.1568,6.1442,6.1449,6.1778,6.1785,6.1792,6.1883,0,0,0,0,0,0,6.1088,6.1116,6.1169,6.1212,6.1236,6.139,6.1306,6.1307,6.1347,6.1339,6.1382,6.1385,6.1379,6.1491,6.151,6.1576,6.1455,6.1772,6.1781,6.1789,6.1875,6.1893,6.1908,0,0,0,0,0,6.108,6.119,6.1172,6.1194,6.1303,6.1394,6.1408,6.1401,6.1352,6.1404,6.1418,6.1384,6.1558,6.1502,6.1523,6.1593,6.1768,6.1779,6.1789,6.1867,6.1889,6.1908,0,0,0,0,0,0,6.1153,6.1196,6.1176,6.1304,6.1346,6.1384,6.1449,6.1425,6.148,6.147,6.1457,6.1467,6.1577,6.1595,6.1532,6.1723,6.1655,6.167,6.1707,6.1728,6.1745,6.1737,6.1462,0,0,0,0,0,6.1185,6.1257,6.1289,6.1399,6.1422,6.1432,6.1471,6.1463,6.1505,6.1521,6.1543,6.1583,6.1646,6.1689,6.1749,6.1877,6.1884,6.1935,6.1952,6.1966,6.1978,6.2044,6.2067,6.1828,6.1828,6.1828,0,0,6.1249,6.1282,6.1328,6.1415,6.1446,6.1519,6.1447,6.1528,6.158,6.1533,6.1633,6.1651,6.1694,6.1811,6.1863,6.183,6.2046,6.1979,6.199,6.1995,6.2057,6.208,6.21,6.1835,6.1834,6.1833,0,0,6.1405,6.1438,6.1532,6.1565,6.1614,6.162,6.1643,6.1684,6.1694,6.1795,6.176,6.1821,6.1932,6.1963,6.1994,6.2159,6.2127,6.2178,6.2266,6.233,6.2349,6.2365,6.2422,6.2442,6.2191,6.2191,6.2192,0,6.1479,6.159,6.1583,6.1666,6.1703,6.1665,6.1758,6.1789,6.1855,6.188,6.1842,6.1978,6.2005,6.2127,6.2167,6.2194,6.2217,6.2173,6.2347,6.2364,6.2379,6.2432,6.2454,6.2197,6.2197,6.2196,6.2195,0,6.1676,6.1753,6.1823,6.1889,6.1934,6.2021,6.2025,6.2071,6.2058,6.2067,6.2168,6.2199,6.2263,6.2291,6.2279,6.2411,6.2388,6.2349,6.228,6.2408,6.2457,6.2478,6.2205,6.2203,6.2202,6.22,0,0,6.1881,6.1941,6.1967,6.1995,6.2045,6.2103,6.2187,6.2252,6.229,6.2336,6.2404,6.2497,6.2461,6.2495,6.2486,6.2543,6.2668,6.2496,6.2497,6.2525,6.2812,6.2839,6.2863,6.2648,6.2652,6.2655,6.2807,0,6.2038,6.2187,6.2182,6.232,6.2389,6.2353,6.2425,6.2463,6.2473,6.253,6.254,6.2606,6.2554,6.2574,6.2629,6.2641,6.2725,6.263,6.2708,6.2711,6.2697,6.289,6.292,6.3062,6.2827,6.283,6.2833,0,6.2241,6.2294,6.244,6.2478,6.2506,6.2572,6.2629,6.2686,6.2726,6.2729,6.2767,6.2748,6.2829,6.2759,6.2869,6.2805,6.2836,6.2846,6.2852,6.2857,6.2778,6.2898,6.3108,6.3128,6.2864,6.2861,6.2859,0,6.2372,6.2481,6.2581,6.2607,6.2654,6.2701,6.2722,6.2758,6.2796,6.2845,6.2869,6.2927,6.2957,6.3001,6.2996,6.2946,6.3107,6.3037,6.3109,6.3109,6.3144,6.3141,6.3359,6.3167,6.3167,6.3167,6.3166,0,6.2546,6.2636,6.2641,6.2702,6.28,6.2792,6.2889,6.2905,6.2937,6.2998,6.297,6.3027,6.3019,6.3076,6.3072,6.3162,6.3177,6.3179,6.3177,6.3181,6.318,6.32,6.3189,6.3172,6.3171,6.317,6.3169,0,6.271,6.2717,6.2824,6.286,6.2871,6.2941,6.297,6.3027,6.3034,6.3112,6.313,6.314,6.3206,6.3206,6.328,6.3277,6.3387,6.3374,6.3374,6.3371,6.3442,6.3434,6.3678,6.3708,6.3499,6.3501,6.3503,0,6.282,6.2888,6.2932,6.2972,6.2996,6.3062,6.31,6.3094,6.3135,6.3184,6.3234,6.3297,6.3347,6.3453,6.3465,6.3521,6.3508,6.3589,6.3516,6.3517,6.3506,6.3501,6.3507,6.3603,6.3605,6.3607,6.3609,0,6.3013,6.3013,6.3072,6.3131,6.3179,6.3224,6.3267,6.33,6.3298,6.3345,6.3412,6.3451,6.3527,6.3589,6.3642,6.3661,6.3634,6.3632,6.3651,6.3655,6.3651,6.3652,6.3411,6.3626,6.3624,6.3623,6.3622,6.3622,6.3152,6.321,6.3249,6.3314,6.3345,6.3385,6.3439,6.3453,6.351,6.3573,6.3565,6.3639,6.3673,6.3743,6.3766,6.3822,6.3793,6.3821,6.3828,6.3835,6.3841,6.3644,6.3832,6.3831,6.3831,6.383,6.383,0,6.3342,6.3365,6.3425,6.3486,6.3536,6.3508,6.3553,6.3596,6.3662,6.3698,6.3748,6.3823,6.3882,6.3899,6.3956,6.3997,6.3986,6.4012,6.4007,6.4011,6.3865,6.3842,6.402,6.402,6.4019,6.4019,6.4019,6.4019,6.3447,6.3542,6.3546,6.3655,6.3677,6.3751,6.3779,6.3814,6.3842,6.3928,6.3978,6.3989,6.4016,6.4074,6.4126,6.4129,6.415,6.4181,6.4178,6.4041,6.4022,6.4004,6.3982,6.4186,6.4186,6.4319,6.4321,6.4322]}]]